Regional Weather Roundup
Issued by NWS Binghamton, NY

Current Version | Previous Version | Text Only | Print | Product List | Glossary On
Versions: 1 2 3 4 5 6 7 8 9 10 11 12 13 14 15 16 17 18 19 20 21 22 23 24 25 26 27
000
ASUS41 KBGM 290210
RWRBGM

REGIONAL WEATHER ROUNDUP
NATIONAL WEATHER SERVICE BINGHAMTON NY
1000 PM EDT THU JUL 28 2016

Note: "fair" indicates few or no clouds below 12,000 feet with no
significant weather and/or obstructions to visibility.

* = Station(s) that does not report precipitation, such as rain,
snow, etc, also no thunder or fog.

NYZ009-015>018-022>025-036-037-044>046-055>057-062-290300
...Central New York...

CITY           SKY/WX    TMP DP  RH WIND       PRES   REMARKS
Binghamton       N/A     74  64  71 NE6       29.93R
Cortland       FAIR      72  63  73 CALM      29.94R
Dansville      CLOUDY    73  65  75 CALM      29.92R
Elmira         CLOUDY    76  64  66 E6        29.90R
Ithaca         CLOUDY    72  63  73 CALM      29.93R
Hamilton       CLEAR     70  66  88 CALM      29.93R
Hornell        CLEAR     70  64  83 CALM      29.97R
Monticello     CLOUDY    70  66  88 CALM      29.95R
Norwich        CLEAR     72  66  83 CALM      29.93R
Oneonta        CLEAR     72  63  73 CALM      29.95R
Penn Yan       MOCLDY    73  59  61 CALM      29.92R
Rome           CLOUDY    71  66  84 CALM      29.90R
Sidney         CLEAR     75  75 100 CALM      29.92R
Syracuse       CLOUDY    72  65  78 N3        29.89R
$$

PAZ038>040-043-044-047-048-072-290300
...Northeast Pennsylvania...

CITY           SKY/WX    TMP DP  RH WIND       PRES   REMARKS
Hazleton       CLOUDY    70  64  83 CALM      29.97R
Scranton       LGT RAIN  75  68  78 S3        29.92R
$$
&&
KEY
WCI = Wind Chill Index
VSB = Visibility
HX  = Heat Index
$$




USA.gov is the U.S. government's official web portal to all federal, state and local government web resources and services.